DAL375 KIND-KRDU

Flight info

Callsign DAL375
Flight time 1h 19m
Altitude 37000
Route DAWNN1 IIU Q50 CUBIM KPASS ALDAN4
Aircraft B738/M-SDE2E3FGHIRWXY/LB1

Departure

Time 2026-05-06 23:50
Airport Indianapolis International Airport (KIND)

Arrival

Time 2026-05-07 01:09
Airport Raleigh-Durham International Airport (KRDU)
Time Latitude Longitude Altitude Speed Heading
2026-05-06 23:38 39.71870 -86.29623 776 ft 0 kts 205°
2026-05-06 23:43 39.71891 -86.29611 776 ft 3 kts 205°
2026-05-06 23:43 39.71912 -86.29598 776 ft 0 kts 205°
2026-05-06 23:46 39.71912 -86.29599 776 ft 0 kts 214°
2026-05-06 23:46 39.71917 -86.29611 776 ft 4 kts 332°
2026-05-06 23:46 39.71960 -86.29627 776 ft 10 kts 347°
2026-05-06 23:46 39.72043 -86.29686 776 ft 15 kts 355°
2026-05-06 23:47 39.72139 -86.29612 777 ft 16 kts 24°
2026-05-06 23:47 39.72233 -86.29672 776 ft 16 kts 314°
2026-05-06 23:47 39.72307 -86.29657 776 ft 11 kts 45°
2026-05-06 23:47 39.72361 -86.29589 777 ft 9 kts 44°
2026-05-06 23:48 39.72419 -86.29515 779 ft 13 kts 45°
2026-05-06 23:48 39.72481 -86.29436 780 ft 12 kts 44°
2026-05-06 23:48 39.72554 -86.29343 782 ft 16 kts 45°
2026-05-06 23:48 39.72632 -86.29246 784 ft 14 kts 44°
2026-05-06 23:49 39.72706 -86.29172 786 ft 12 kts
2026-05-06 23:49 39.72772 -86.29243 784 ft 13 kts 313°
2026-05-06 23:49 39.72780 -86.29352 782 ft 14 kts 235°
2026-05-06 23:49 39.72690 -86.29471 780 ft 32 kts 225°
2026-05-06 23:50 39.72338 -86.29919 771 ft 106 kts 225°
2026-05-06 23:50 39.70782 -86.31884 1249 ft 177 kts 229°
2026-05-06 23:50 39.69939 -86.32950 2136 ft 172 kts 231°
2026-05-06 23:51 39.69089 -86.34094 2742 ft 185 kts 233°
2026-05-06 23:51 39.68056 -86.35179 3397 ft 201 kts 209°
2026-05-06 23:51 39.66654 -86.35591 4053 ft 217 kts 186°
2026-05-06 23:51 39.65075 -86.35523 4554 ft 239 kts 178°
2026-05-06 23:52 39.63403 -86.35300 5282 ft 250 kts 176°
2026-05-06 23:52 39.61633 -86.35045 5990 ft 262 kts 177°
2026-05-06 23:52 39.59793 -86.34796 6714 ft 272 kts 178°
2026-05-06 23:52 39.57887 -86.34563 7514 ft 280 kts 179°
2026-05-06 23:53 39.55957 -86.34334 8475 ft 281 kts 180°
2026-05-06 23:53 39.54034 -86.34102 9363 ft 283 kts 181°
2026-05-06 23:53 39.52071 -86.33861 10246 ft 286 kts 182°
2026-05-06 23:53 39.50037 -86.33630 10696 ft 303 kts 182°
2026-05-06 23:54 39.47916 -86.33393 11434 ft 314 kts 183°
2026-05-06 23:54 39.45673 -86.33149 12001 ft 330 kts 183°
2026-05-06 23:54 39.43353 -86.32903 12640 ft 343 kts 184°
2026-05-06 23:54 39.40939 -86.32642 13172 ft 358 kts 184°
2026-05-06 23:55 39.38418 -86.32352 13710 ft 371 kts 184°
2026-05-06 23:55 39.35773 -86.32044 14139 ft 386 kts 184°
2026-05-06 23:55 39.33054 -86.31737 14544 ft 402 kts 184°
2026-05-06 23:55 39.30268 -86.31417 15039 ft 412 kts 184°
2026-05-06 23:56 39.27408 -86.31075 15887 ft 412 kts 185°
2026-05-06 23:56 39.24547 -86.30740 16588 ft 417 kts 186°
2026-05-06 23:56 39.21667 -86.30393 17289 ft 420 kts 186°
2026-05-06 23:56 39.18760 -86.30042 18037 ft 421 kts 186°
2026-05-06 23:57 39.15828 -86.29679 18801 ft 422 kts 187°
2026-05-06 23:57 39.12905 -86.29330 19480 ft 423 kts 187°
2026-05-06 23:57 39.09951 -86.28992 19974 ft 429 kts 187°
2026-05-06 23:57 39.07021 -86.28657 20920 ft 423 kts 188°
2026-05-06 23:58 39.04073 -86.28314 21384 ft 429 kts 188°
2026-05-06 23:58 39.01090 -86.27970 21893 ft 432 kts 188°
2026-05-06 23:58 38.98122 -86.27604 22779 ft 427 kts 188°
2026-05-06 23:58 38.95165 -86.27234 23106 ft 434 kts 188°
2026-05-06 23:59 38.92152 -86.26867 23649 ft 435 kts 188°
2026-05-06 23:59 38.89123 -86.26514 23966 ft 441 kts 188°
2026-05-06 23:59 38.86095 -86.26170 24472 ft 442 kts 188°
2026-05-06 23:59 38.83036 -86.25812 25226 ft 437 kts 189°
2026-05-07 00:00 38.79999 -86.25468 25544 ft 442 kts 189°
2026-05-07 00:00 38.76941 -86.25131 26015 ft 443 kts 189°
2026-05-07 00:00 38.73909 -86.24788 26710 ft 439 kts 190°
2026-05-07 00:00 38.71872 -86.24560 26991 ft 440 kts 190°
2026-05-07 00:01 38.67777 -86.24103 27650 ft 441 kts 190°
2026-05-07 00:01 38.64771 -86.23727 28329 ft 439 kts 189°
2026-05-07 00:01 38.61721 -86.23096 28761 ft 453 kts 183°
2026-05-07 00:01 38.58636 -86.21882 29298 ft 471 kts 174°
2026-05-07 00:02 38.55648 -86.20056 29758 ft 490 kts 166°
2026-05-07 00:02 38.52772 -86.17592 30322 ft 506 kts 158°
2026-05-07 00:02 38.50036 -86.14664 30610 ft 522 kts 152°
2026-05-07 00:02 38.47448 -86.11346 31082 ft 532 kts 146°
2026-05-07 00:03 38.45048 -86.07825 31678 ft 534 kts 144°
2026-05-07 00:03 38.42686 -86.04135 32233 ft 533 kts 143°
2026-05-07 00:03 38.40368 -86.00481 32664 ft 531 kts 143°
2026-05-07 00:03 38.38030 -85.96854 33219 ft 525 kts 144°
2026-05-07 00:04 38.35679 -85.93299 33712 ft 522 kts 145°
2026-05-07 00:04 38.33260 -85.89751 33912 ft 524 kts 146°
2026-05-07 00:04 38.30844 -85.86297 34272 ft 524 kts 147°
2026-05-07 00:04 38.28412 -85.82864 34751 ft 521 kts 147°
2026-05-07 00:05 38.25968 -85.79439 35235 ft 518 kts 147°
2026-05-07 00:05 38.23521 -85.76033 35534 ft 519 kts 147°
2026-05-07 00:05 38.21081 -85.72649 35883 ft 520 kts 147°
2026-05-07 00:05 38.18639 -85.69276 36058 ft 522 kts 148°
2026-05-07 00:06 38.16198 -85.65894 36542 ft 519 kts 147°
2026-05-07 00:06 38.13778 -85.62523 36846 ft 522 kts 146°
2026-05-07 00:06 38.11412 -85.58975 37013 ft 532 kts 142°
2026-05-07 00:06 38.09172 -85.55157 37019 ft 543 kts 137°
2026-05-07 00:07 38.05058 -85.46984 37007 ft 557 kts 131°
2026-05-07 00:07 38.01202 -85.38471 36997 ft 560 kts 130°
2026-05-07 00:08 37.97393 -85.29894 36988 ft 554 kts 131°
2026-05-07 00:08 37.93578 -85.21442 36988 ft 553 kts 131°
2026-05-07 00:09 37.89714 -85.13037 36989 ft 558 kts 131°
2026-05-07 00:09 37.85762 -85.04545 36988 ft 561 kts 132°
2026-05-07 00:10 37.81822 -84.96103 36990 ft 555 kts 131°
2026-05-07 00:10 37.77918 -84.87759 36990 ft 555 kts 131°
2026-05-07 00:11 37.73956 -84.79341 36986 ft 559 kts 131°
2026-05-07 00:11 37.70022 -84.70970 36994 ft 553 kts 131°
2026-05-07 00:12 37.66108 -84.62627 36996 ft 556 kts 131°
2026-05-07 00:12 37.62159 -84.54227 37000 ft 557 kts 130°
2026-05-07 00:13 37.58217 -84.45837 37005 ft 556 kts 130°
2026-05-07 00:13 37.54275 -84.37488 37000 ft 556 kts 131°
2026-05-07 00:14 37.50328 -84.29145 36998 ft 550 kts 131°
2026-05-07 00:14 37.46389 -84.20860 36991 ft 554 kts 131°
2026-05-07 00:15 37.42417 -84.12590 36982 ft 554 kts 132°
2026-05-07 00:15 37.38480 -84.04403 36982 ft 548 kts 131°
2026-05-07 00:16 37.34498 -83.96173 36981 ft 555 kts 131°
2026-05-07 00:16 37.30486 -83.87892 36984 ft 551 kts 131°
2026-05-07 00:17 37.26456 -83.79597 36985 ft 556 kts 131°
2026-05-07 00:17 37.22474 -83.71395 36985 ft 550 kts 131°
2026-05-07 00:18 37.18483 -83.63191 36988 ft 551 kts 132°
2026-05-07 00:18 37.14497 -83.55035 36992 ft 552 kts 132°
2026-05-07 00:19 37.10525 -83.46902 36996 ft 548 kts 131°
2026-05-07 00:19 37.06472 -83.38657 37000 ft 553 kts 132°
2026-05-07 00:20 37.02457 -83.30489 36997 ft 549 kts 132°
2026-05-07 00:20 37.00470 -83.26444 36839 ft 544 kts 131°
2026-05-07 00:20 36.98516 -83.22460 36540 ft 535 kts 132°
2026-05-07 00:21 36.96576 -83.18504 36126 ft 528 kts 131°
2026-05-07 00:21 36.94664 -83.14617 35563 ft 525 kts 132°
2026-05-07 00:21 36.92780 -83.10799 35077 ft 520 kts 132°
2026-05-07 00:21 36.90891 -83.06902 34324 ft 523 kts 130°
2026-05-07 00:22 36.89139 -83.02969 33475 ft 531 kts 126°
2026-05-07 00:22 36.87656 -82.98761 33086 ft 535 kts 118°
2026-05-07 00:22 36.85396 -82.89731 32999 ft 554 kts 110°
2026-05-07 00:23 36.83573 -82.80321 32994 ft 564 kts 108°
2026-05-07 00:23 36.81884 -82.70773 32998 ft 561 kts 108°
2026-05-07 00:24 36.80162 -82.61260 33000 ft 563 kts 109°
2026-05-07 00:24 36.78372 -82.51771 32999 ft 562 kts 109°
2026-05-07 00:25 36.76536 -82.42265 33001 ft 562 kts 110°
2026-05-07 00:25 36.74667 -82.32719 32996 ft 565 kts 110°
2026-05-07 00:26 36.72818 -82.23287 33004 ft 562 kts 109°
2026-05-07 00:26 36.70964 -82.13831 33019 ft 559 kts 110°
2026-05-07 00:27 36.69097 -82.04373 33004 ft 560 kts 109°
2026-05-07 00:27 36.67255 -81.95067 32424 ft 555 kts 110°
2026-05-07 00:28 36.66404 -81.90363 31732 ft 557 kts 106°
2026-05-07 00:28 36.65829 -81.85624 31008 ft 560 kts 100°
2026-05-07 00:28 36.65571 -81.80738 30208 ft 563 kts 94°
2026-05-07 00:28 36.65662 -81.75878 29379 ft 565 kts 88°
2026-05-07 00:29 36.66198 -81.71085 28529 ft 568 kts 79°
2026-05-07 00:29 36.67222 -81.66332 27677 ft 567 kts 71°
2026-05-07 00:30 36.71440 -81.52856 26977 ft 559 kts 66°
2026-05-07 00:30 36.72811 -81.48313 26985 ft 566 kts 68°
2026-05-07 00:30 36.74083 -81.43734 26978 ft 563 kts 70°
2026-05-07 00:30 36.75279 -81.39078 26979 ft 564 kts 72°
2026-05-07 00:31 36.76407 -81.34402 26994 ft 562 kts 73°
2026-05-07 00:31 36.77484 -81.29747 26995 ft 564 kts 74°
2026-05-07 00:31 36.78543 -81.25054 26996 ft 562 kts 73°
2026-05-07 00:31 36.79586 -81.20390 26991 ft 563 kts 74°
2026-05-07 00:32 36.80627 -81.15707 26991 ft 560 kts 73°
2026-05-07 00:32 36.81671 -81.11024 26990 ft 562 kts 73°
2026-05-07 00:32 36.82717 -81.06340 26987 ft 561 kts 73°
2026-05-07 00:32 36.83761 -81.01676 26985 ft 560 kts 74°
2026-05-07 00:33 36.84806 -80.97021 26989 ft 558 kts 74°
2026-05-07 00:33 36.85854 -80.92363 26989 ft 561 kts 73°
2026-05-07 00:33 36.86912 -80.87665 26985 ft 559 kts 73°
2026-05-07 00:33 36.87956 -80.83021 26982 ft 559 kts 73°
2026-05-07 00:34 36.89007 -80.78350 26968 ft 560 kts 73°
2026-05-07 00:34 36.90036 -80.73771 26771 ft 552 kts 73°
2026-05-07 00:34 36.91076 -80.69133 25945 ft 552 kts 73°
2026-05-07 00:34 36.92094 -80.64580 25178 ft 549 kts 73°
2026-05-07 00:35 36.93112 -80.60028 24967 ft 543 kts 73°
2026-05-07 00:35 36.94133 -80.55454 24966 ft 553 kts 73°
2026-05-07 00:35 36.95176 -80.50775 24959 ft 558 kts 73°
2026-05-07 00:35 36.96209 -80.46106 24963 ft 559 kts 73°
2026-05-07 00:36 36.97219 -80.41437 24956 ft 559 kts 73°
2026-05-07 00:36 36.98215 -80.36755 24953 ft 558 kts 74°
2026-05-07 00:36 36.99190 -80.32121 24954 ft 557 kts 75°
2026-05-07 00:36 37.00180 -80.27387 24959 ft 560 kts 75°
2026-05-07 00:37 37.01152 -80.22736 24947 ft 561 kts 75°
2026-05-07 00:37 37.02399 -80.18102 24946 ft 558 kts 65°
2026-05-07 00:37 37.04121 -80.13807 24939 ft 556 kts 58°
2026-05-07 00:37 37.06090 -80.09645 24936 ft 553 kts 55°
2026-05-07 00:38 37.08113 -80.05622 24925 ft 554 kts 54°
2026-05-07 00:38 37.10198 -80.01564 24924 ft 552 kts 53°
2026-05-07 00:38 37.12288 -79.97519 24929 ft 552 kts 53°
2026-05-07 00:38 37.14376 -79.93485 24920 ft 555 kts 53°
2026-05-07 00:39 37.16447 -79.89486 24919 ft 552 kts 53°
2026-05-07 00:39 37.18553 -79.85427 24923 ft 553 kts 53°
2026-05-07 00:39 37.20640 -79.81428 24921 ft 554 kts 53°
2026-05-07 00:39 37.22752 -79.77399 24914 ft 554 kts 53°
2026-05-07 00:40 37.24848 -79.73398 24920 ft 545 kts 53°
2026-05-07 00:40 37.26907 -79.69457 24916 ft 525 kts 53°
2026-05-07 00:40 37.28847 -79.65728 24912 ft 506 kts 53°
2026-05-07 00:40 37.30724 -79.62096 24916 ft 489 kts 52°
2026-05-07 00:41 37.32532 -79.58584 24922 ft 472 kts 52°
2026-05-07 00:41 37.34299 -79.55135 24926 ft 462 kts 52°
2026-05-07 00:41 37.36017 -79.51777 24930 ft 466 kts 53°
2026-05-07 00:41 37.37752 -79.48308 24926 ft 468 kts 57°
2026-05-07 00:42 37.38966 -79.44515 24927 ft 475 kts 75°
2026-05-07 00:42 37.39363 -79.40406 24847 ft 482 kts 92°
2026-05-07 00:42 37.38895 -79.36234 24580 ft 475 kts 110°
2026-05-07 00:42 37.37632 -79.32547 24326 ft 452 kts 129°
2026-05-07 00:43 37.35702 -79.29576 24076 ft 425 kts 147°
2026-05-07 00:43 37.33366 -79.27550 23824 ft 403 kts 163°
2026-05-07 00:43 37.30780 -79.26229 23580 ft 396 kts 173°
2026-05-07 00:43 37.28151 -79.25275 23328 ft 392 kts 174°
2026-05-07 00:44 37.25548 -79.24344 23075 ft 387 kts 174°
2026-05-07 00:44 37.22986 -79.23408 22827 ft 383 kts 174°
2026-05-07 00:44 37.20414 -79.22469 22592 ft 388 kts 174°
2026-05-07 00:44 37.17815 -79.21524 22345 ft 388 kts 174°
2026-05-07 00:45 37.15247 -79.20589 22101 ft 386 kts 174°
2026-05-07 00:45 37.12678 -79.19650 21857 ft 383 kts 174°
2026-05-07 00:45 37.10123 -79.18719 21618 ft 382 kts 174°
2026-05-07 00:45 37.07591 -79.17796 21379 ft 379 kts 174°
2026-05-07 00:46 37.05057 -79.16875 21136 ft 377 kts 174°
2026-05-07 00:46 37.02520 -79.15958 20901 ft 380 kts 174°
2026-05-07 00:46 37.00009 -79.15050 20661 ft 378 kts 174°
2026-05-07 00:46 36.97473 -79.14130 20389 ft 377 kts 174°
2026-05-07 00:47 36.94978 -79.13224 19984 ft 378 kts 174°
2026-05-07 00:47 36.92437 -79.12306 19485 ft 377 kts 174°
2026-05-07 00:47 36.89917 -79.11396 18958 ft 376 kts 173°
2026-05-07 00:47 36.87428 -79.10497 18442 ft 374 kts 173°
2026-05-07 00:48 36.84916 -79.09591 17918 ft 373 kts 174°
2026-05-07 00:48 36.82448 -79.08701 17393 ft 372 kts 173°
2026-05-07 00:48 36.79984 -79.07815 16867 ft 371 kts 173°
2026-05-07 00:48 36.77494 -79.06919 16362 ft 369 kts 173°
2026-05-07 00:49 36.75059 -79.06043 15852 ft 367 kts 172°
2026-05-07 00:49 36.72590 -79.05155 15309 ft 366 kts 172°
2026-05-07 00:49 36.70167 -79.04285 14771 ft 365 kts 171°
2026-05-07 00:49 36.67740 -79.03414 14228 ft 365 kts 171°
2026-05-07 00:50 36.65280 -79.02531 13685 ft 363 kts 171°
2026-05-07 00:50 36.62891 -79.01673 13148 ft 362 kts 171°
2026-05-07 00:50 36.60457 -79.00800 12594 ft 361 kts 171°
2026-05-07 00:50 36.58070 -78.99944 12047 ft 360 kts 170°
2026-05-07 00:51 36.55655 -78.99078 11545 ft 357 kts 170°
2026-05-07 00:51 36.53278 -78.98225 11199 ft 349 kts 170°
2026-05-07 00:51 36.50999 -78.97405 11000 ft 338 kts 170°
2026-05-07 00:51 36.48769 -78.96600 10877 ft 324 kts 171°
2026-05-07 00:52 36.46641 -78.95834 10748 ft 313 kts 171°
2026-05-07 00:52 36.44591 -78.95102 10621 ft 303 kts 171°
2026-05-07 00:52 36.42593 -78.94395 10497 ft 298 kts 171°
2026-05-07 00:52 36.40601 -78.93640 10329 ft 304 kts 166°
2026-05-07 00:53 36.38724 -78.92382 10021 ft 313 kts 147°
2026-05-07 00:53 36.37140 -78.90511 9879 ft 317 kts 138°
2026-05-07 00:53 36.35646 -78.88451 9419 ft 321 kts 135°
2026-05-07 00:53 36.34065 -78.86565 9024 ft 311 kts 153°
2026-05-07 00:54 36.32113 -78.85716 8790 ft 286 kts 184°
2026-05-07 00:54 36.30274 -78.86162 8447 ft 267 kts 214°
2026-05-07 00:54 36.28943 -78.87634 8136 ft 254 kts 235°
2026-05-07 00:54 36.27948 -78.89444 7966 ft 250 kts 240°
2026-05-07 00:55 36.27028 -78.91281 7974 ft 255 kts 240°
2026-05-07 00:55 36.26100 -78.93150 7974 ft 256 kts 240°
2026-05-07 00:55 36.25164 -78.95029 7977 ft 255 kts 241°
2026-05-07 00:55 36.24226 -78.96910 7971 ft 258 kts 240°
2026-05-07 00:56 36.23242 -78.98725 7961 ft 257 kts 230°
2026-05-07 00:56 36.21705 -78.99933 7964 ft 270 kts 200°
2026-05-07 00:56 36.19776 -78.99992 7727 ft 289 kts 171°
2026-05-07 00:56 36.17979 -78.98828 7440 ft 298 kts 142°
2026-05-07 00:57 36.16774 -78.96727 7145 ft 306 kts 115°
2026-05-07 00:57 36.16357 -78.94155 6861 ft 308 kts 92°
2026-05-07 00:57 36.16496 -78.91509 6580 ft 308 kts 83°
2026-05-07 00:57 36.16805 -78.88899 6283 ft 309 kts 82°
2026-05-07 00:58 36.17131 -78.86294 5995 ft 307 kts 82°
2026-05-07 00:58 36.17423 -78.83710 5963 ft 301 kts 83°
2026-05-07 00:58 36.17687 -78.81120 5963 ft 307 kts 84°
2026-05-07 00:58 36.17937 -78.78497 5964 ft 302 kts 84°
2026-05-07 00:59 36.18417 -78.73312 5952 ft 303 kts 84°
2026-05-07 00:59 36.18653 -78.70782 5952 ft 289 kts 84°
2026-05-07 00:59 36.18879 -78.68363 5956 ft 275 kts 84°
2026-05-07 01:00 36.19012 -78.66069 5923 ft 261 kts 98°
2026-05-07 01:00 36.18440 -78.64047 5645 ft 249 kts 134°
2026-05-07 01:00 36.17210 -78.62626 5482 ft 234 kts 149°
2026-05-07 01:00 36.15965 -78.61427 5378 ft 224 kts 142°
2026-05-07 01:01 36.14999 -78.59954 5225 ft 215 kts 130°
2026-05-07 01:01 36.14175 -78.58450 5003 ft 208 kts 130°
2026-05-07 01:01 36.13371 -78.56973 4692 ft 205 kts 130°
2026-05-07 01:01 36.12673 -78.55448 4384 ft 208 kts 117°
2026-05-07 01:02 36.12036 -78.53907 4104 ft 198 kts 141°
2026-05-07 01:02 36.10888 -78.53199 3698 ft 179 kts 188°
2026-05-07 01:02 36.09767 -78.53628 3405 ft 164 kts 218°
2026-05-07 01:02 36.08968 -78.54575 3160 ft 160 kts 226°
2026-05-07 01:03 36.08052 -78.55353 2981 ft 158 kts 212°
2026-05-07 01:03 36.07126 -78.56119 2965 ft 161 kts 221°
2026-05-07 01:03 36.06273 -78.57051 2967 ft 162 kts 225°
2026-05-07 01:03 36.05457 -78.58012 2965 ft 163 kts 226°
2026-05-07 01:04 36.04659 -78.58980 2961 ft 160 kts 226°
2026-05-07 01:04 36.03867 -78.59952 2968 ft 164 kts 226°
2026-05-07 01:04 36.03064 -78.60942 2957 ft 162 kts 226°
2026-05-07 01:04 36.02270 -78.61923 2966 ft 159 kts 226°
2026-05-07 01:05 36.01482 -78.62899 2966 ft 161 kts 226°
2026-05-07 01:05 36.00687 -78.63882 2970 ft 161 kts 226°
2026-05-07 01:05 35.99889 -78.64870 2975 ft 162 kts 226°
2026-05-07 01:05 35.99113 -78.65824 2972 ft 155 kts 226°
2026-05-07 01:06 35.98341 -78.66778 2878 ft 158 kts 226°
2026-05-07 01:06 35.97564 -78.67739 2627 ft 153 kts 226°
2026-05-07 01:06 35.96811 -78.68668 2432 ft 157 kts 226°
2026-05-07 01:06 35.96033 -78.69624 2214 ft 156 kts 226°
2026-05-07 01:07 35.95293 -78.70539 1996 ft 150 kts 226°
2026-05-07 01:07 35.94552 -78.71452 1813 ft 149 kts 225°
2026-05-07 01:07 35.93822 -78.72353 1618 ft 149 kts 226°
2026-05-07 01:07 35.93092 -78.73250 1437 ft 141 kts 225°
2026-05-07 01:08 35.92408 -78.74095 1231 ft 142 kts 225°
2026-05-07 01:08 35.91707 -78.74950 1059 ft 141 kts 225°
2026-05-07 01:08 35.91000 -78.75810 875 ft 143 kts 224°
2026-05-07 01:08 35.90292 -78.76678 682 ft 146 kts 225°
2026-05-07 01:09 35.89562 -78.77582 489 ft 148 kts 225°
2026-05-07 01:09 35.88862 -78.78446 392 ft 121 kts 225°
2026-05-07 01:09 35.88433 -78.78976 391 ft 53 kts 223°
2026-05-07 01:09 35.88284 -78.79067 389 ft 17 kts 154°
2026-05-07 01:10 35.88250 -78.79034 392 ft 0 kts 134°
2026-05-07 01:10 35.88250 -78.79033 392 ft 0 kts 134°
2026-05-07 01:10 35.88236 -78.79016 393 ft 11 kts 134°
2026-05-07 01:10 35.88230 -78.79009 394 ft 0 kts 135°
2026-05-07 01:11 35.88209 -78.78993 395 ft 5 kts 162°
2026-05-07 01:11 35.88175 -78.79007 395 ft 5 kts 216°
2026-05-07 01:12 35.88152 -78.79031 395 ft 2 kts 225°
2026-05-07 01:12 35.88143 -78.79042 394 ft 0 kts 223°
2026-05-07 01:12 35.88139 -78.79047 394 ft 1 kts 223°
2026-05-07 01:12 35.88127 -78.79106 392 ft 13 kts 290°
2026-05-07 01:13 35.88091 -78.79207 388 ft 14 kts 225°
2026-05-07 01:13 35.88036 -78.79274 387 ft 5 kts 224°
2026-05-07 01:13 35.88031 -78.79279 387 ft 0 kts 224°
2026-05-07 01:14 35.88025 -78.79285 387 ft 5 kts 211°
2026-05-07 01:14 35.87977 -78.79273 389 ft 6 kts 163°
2026-05-07 01:15 35.87920 -78.79318 388 ft 15 kts 225°
2026-05-07 01:15 35.87849 -78.79404 386 ft 10 kts 224°
2026-05-07 01:15 35.87812 -78.79411 387 ft 2 kts 138°
2026-05-07 01:15 35.87807 -78.79406 387 ft 0 kts 136°
2026-05-07 01:16 35.87785 -78.79379 389 ft 2 kts 135°
2026-05-07 01:16 35.87785 -78.79378 389 ft 0 kts 135°